CZ-7 R/B

Last updated on Mon Jul 01 2024 00:02:04 GMT+0000 (Coordinated Universal Time)

1 60180U 24122B 24181.73258536 .00335316 -60534-6 22169-2 0 9999 2 60180 15.4808 118.1997 7239141 178.6758 185.9088 2.39073371 02

Satellite not in orbit